This demonstration page uses our WeatherBlox Daily Observations layout. Learn more.

Left ArrowRight Arrow

39.08367, -84.50855

Hourly Observations for August 2, 2015

Temp ( °F °C ) Dew Point ( °F °C ) Humidity (%) Winds ( mph kmh ) Pressure ( in mb ) Visibility ( mi km ) Precip ( " mm )
12:53 am 00:53 Clear 64 17.8 62 16.7 93 93 N N/A 29.98 1015 10 16 N/A
1:53 am 01:53 Clear 63 17.2 61 16.1 93 93 N N/A 29.99 1016 10 16 N/A
2:53 am 02:53 Clear 62 16.7 61 16.1 96 96 N N/A 29.98 1015 10 16 N/A
3:53 am 03:53 Clear 62 16.7 61 16.1 96 96 N N/A 29.98 1015 10 16 N/A
4:53 am 04:53 Clear 62 16.7 61 16.1 96 96 N N/A 29.98 1015 10 16 N/A
5:53 am 05:53 Clear 62 16.7 61 16.1 96 96 N N/A 29.97 1015 9 14 N/A
6:53 am 06:53 Sunny 61 16.1 61 16.1 100 100 N N/A 29.97 1015 10 16 N/A
7:53 am 07:53 Sunny 63 17.2 63 17.2 100 100 N N/A 29.98 1015 9 14 N/A
8:53 am 08:53 Sunny 69 20.6 65 18.3 87 87 N N/A 29.99 1016 10 16 N/A
9:53 am 09:53 Sunny 73 22.8 66 18.9 79 79 S 3 6 29.99 1016 10 16 N/A
10:53 am 10:53 Sunny 79 26.1 65 18.3 62 62 S 6 9 29.98 1015 10 16 N/A
11:53 am 11:53 Sunny 82 27.8 63 17.2 53 53 S 7 11 29.98 1015 10 16 N/A
12:53 pm 12:53 Sunny 84 28.9 61 16.1 46 46 S 9 15 29.96 1015 10 16 N/A
1:53 pm 13:53 Sunny 85 29.4 62 16.7 46 46 S 9 15 29.96 1015 10 16 N/A
2:53 pm 14:53 Sunny 85 29.4 61 16.1 45 45 SSW 10 17 29.94 1014 10 16 N/A
3:53 pm 15:53 Sunny 86 30 60 15.6 42 42 S 10 17 29.93 1013 10 16 N/A
4:53 pm 16:53 Sunny 86 30 62 16.7 45 45 S 8 13 29.91 1013 10 16 N/A
5:53 pm 17:53 Sunny 85 29.4 61 16.1 45 45 SSW 10 17 29.89 1012 10 16 N/A
6:53 pm 18:53 Sunny 81 27.2 63 17.2 54 54 SSW 8 13 29.89 1012 10 16 N/A
7:53 pm 19:53 Sunny 80 26.7 64 17.8 58 58 S 9 15 29.88 1012 10 16 N/A
8:53 pm 20:53 Clear 76 24.4 64 17.8 67 67 SSW 5 7 29.87 1011 10 16 N/A
9:53 pm 21:53 Clear 73 22.8 64 17.8 74 74 N N/A 29.87 1012 10 16 N/A
10:53 pm 22:53 Clear 67 19.4 65 18.3 93 93 N N/A 29.89 1012 10 16 N/A
11:53 pm 23:53 Clear 67 19.4 64 17.8 91 91 N N/A 29.87 1012 10 16 N/A

Powered by AerisWeather